RH
74 75 75 80 81 71 58 52 49 45 41 39 34 27 21 17 18 23 32 41 43 42 45 49 52 55 56 55 56 59 62 62 61 60 59 57 57 58 59 62 65 69 72 76 78 75 73 75 78 78 79 83 86 90 93 89 86 88 86 85 85 81 82 89 96 103 95 76 74 87 94 96 99 100 99 100 100 99 100 100 99 100 100 99 100
74 76 73 75 81 79 67 54 50 49 44 42 38 31 24 20 19 24 32 42 46 46 47 52 55 58 59 58 57 60 64 66 65 64 61 59 58 59 61 63 66 70 74 79 79 76 75 77 79 79 80 81 85 90 93 92 94 98 95 92 93 89 88 94 97 100 102 85 66 70 83 89 94 100 100 99 101 99 98 99 98 100 101 99 100
70 73 71 70 74 81 78 63 53 51 48 44 41 35 28 24 21 24 33 44 50 50 51 54 58 60 61 61 60 61 64 66 67 67 64 61 61 61 63 65 67 71 76 81 81 77 76 78 77 79 81 82 84 86 86 86 88 90 91 93 98 97 93 95 97 97 102 97 75 60 70 81 85 94 101 98 100 100 96 96 95 95 99 100 100
71 73 70 67 68 75 81 73 59 54 51 47 44 39 32 28 24 25 35 48 54 54 55 57 60 62 63 63 63 62 63 65 67 67 66 65 64 64 66 68 69 71 77 82 82 79 78 80 78 79 84 84 83 82 81 80 82 83 85 89 94 96 93 91 94 93 93 99 88 63 63 79 79 86 101 100 98 100 97 95 94 90 92 96 97
75 75 72 70 66 69 79 77 65 59 55 50 47 42 36 30 26 27 37 51 58 58 59 60 61 64 64 65 65 64 64 66 67 68 69 68 68 68 68 70 70 71 75 80 83 82 80 80 80 82 85 83 78 77 79 80 83 85 85 87 90 95 97 91 88 88 84 91 98 76 64 79 82 81 96 101 98 101 100 97 94 88 86 89 90
75 77 79 78 68 66 77 79 69 62 59 54 51 46 39 33 28 29 40 54 62 64 64 64 63 64 65 66 67 67 67 68 69 70 71 71 71 70 70 70 71 72 75 80 83 83 81 80 81 83 82 79 76 80 86 89 90 91 90 91 92 94 99 96 89 86 82 85 98 87 66 74 85 83 92 101 99 99 100 98 93 87 83 82 82
78 85 88 85 71 64 74 80 72 64 61 59 55 50 43 36 30 31 43 58 66 69 68 66 65 65 66 68 69 70 71 71 72 73 74 75 74 72 72 72 73 74 77 81 83 82 82 82 82 84 83 82 85 90 96 99 98 98 98 97 99 98 97 99 95 92 88 83 91 95 80 76 87 87 88 98 100 99 100 101 97 91 86 82 77
85 90 91 89 75 64 72 82 77 67 64 62 59 54 48 41 34 35 46 61 70 73 71 67 67 67 68 70 71 72 73 73 75 76 75 76 75 74 75 75 75 77 78 82 84 82 82 83 82 85 89 89 93 98 100 100 99 100 100 98 100 101 99 100 99 98 97 88 86 96 91 81 84 85 83 91 99 100 100 99 95 90 89 87 81
90 93 93 91 78 65 70 84 84 72 65 65 64 59 52 45 39 39 49 64 74 77 74 69 68 69 70 72 72 74 75 75 75 75 75 76 76 77 78 77 77 80 81 84 85 82 82 84 80 84 92 95 97 100 100 101 100 99 101 101 100 100 99 100 101 100 99 93 88 91 89 80 79 82 83 88 96 98 97 95 94 93 92 90 83
95 97 98 91 77 66 70 83 88 79 69 67 66 63 57 49 43 42 52 68 78 80 77 71 69 71 72 74 74 75 76 75 74 75 76 77 79 79 80 81 80 82 83 86 87 83 83 82 79 84 96 99 99 100 99 99 98 94 96 99 100 101 101 99 100 101 100 97 93 90 86 81 78 79 82 86 90 96 98 97 99 97 91 88 83
98 100 99 89 76 69 71 82 92 86 74 70 68 66 61 52 45 46 55 71 82 83 79 73 71 73 74 76 77 76 76 75 75 77 79 81 83 82 81 83 84 84 86 89 89 85 82 81 84 92 100 101 99 98 95 93 92 93 93 93 92 96 101 100 99 99 100 99 97 95 92 87 81 79 81 82 85 91 96 97 99 97 94 94 88
96 101 97 87 79 74 73 82 95 93 81 74 70 67 64 56 48 49 59 75 86 85 80 76 74 75 77 78 78 77 76 76 76 78 82 84 89 91 87 85 87 88 89 92 91 87 82 84 91 96 99 100 96 90 88 89 90 91 94 94 92 93 97 99 99 98 97 96 96 96 96 93 87 83 85 88 85 84 87 91 93 93 95 96 91
98 100 94 87 86 83 78 82 95 99 89 80 74 70 66 59 51 53 65 81 90 87 82 79 76 77 79 79 79 78 76 76 77 80 83 85 91 99 97 92 93 95 96 96 94 90 87 90 97 98 95 97 95 86 82 85 85 84 90 97 99 98 97 99 100 100 98 98 98 95 90 87 81 74 77 87 85 77 77 80 81 84 89 94 94
99 98 93 90 92 92 86 83 92 101 96 86 79 72 67 61 55 58 72 87 92 88 83 81 78 79 80 80 80 79 76 75 78 81 85 88 93 100 101 97 98 100 100 100 98 95 94 96 99 97 90 89 90 85 80 81 82 83 91 98 100 100 100 99 99 100 99 100 101 99 95 91 83 69 61 64 66 67 71 74 74 78 84 88 89
92 93 92 91 94 98 95 87 89 99 100 93 85 77 70 64 59 64 78 90 93 89 85 83 81 80 80 82 82 80 76 76 79 82 86 91 95 100 101 99 100 100 100 101 100 97 97 99 98 96 92 88 88 86 85 87 92 94 97 100 100 99 98 97 98 100 100 99 97 95 97 101 100 91 76 61 54 58 66 69 70 73 75 76 81
89 93 94 93 96 100 97 89 90 98 102 98 91 82 74 68 64 68 81 92 95 91 86 84 82 81 81 83 84 82 78 77 81 84 89 93 98 101 101 99 100 101 99 98 96 93 94 100 100 97 98 97 92 88 91 95 97 98 97 97 100 100 95 93 98 100 100 101 96 89 89 95 100 102 98 87 72 61 59 62 62 63 68 74 78
97 99 98 99 100 94 87 88 95 99 100 100 96 88 79 73 68 70 84 96 96 92 87 84 83 83 83 84 84 83 79 78 82 87 92 95 99 102 101 100 100 100 99 95 91 90 93 100 101 98 99 100 93 89 95 97 93 91 91 91 95 99 93 88 92 97 99 102 99 93 90 92 97 100 101 101 95 83 78 78 77 77 83 89 87
99 100 99 101 97 84 77 88 100 100 99 101 100 93 84 77 71 75 90 99 96 92 89 84 84 85 84 84 86 86 81 80 86 92 94 97 101 101 100 100 100 100 100 97 91 90 93 98 101 98 97 99 95 90 95 100 95 90 88 87 90 92 89 85 86 91 96 99 97 95 95 95 98 100 99 100 100 98 98 98 95 95 98 100 96
97 100 101 98 92 79 75 89 101 100 98 101 101 97 89 80 76 83 96 101 97 93 89 84 85 87 86 85 88 89 83 82 89 96 96 98 101 101 100 100 100 100 100 97 94 95 97 98 100 98 97 99 98 93 94 99 100 96 91 91 92 90 89 93 94 93 96 98 95 93 94 94 97 100 100 100 100 100 100 100 99 100 100 99 99
99 101 100 96 90 80 77 88 100 101 99 100 101 100 93 83 83 92 100 101 97 92 88 86 88 90 88 87 89 89 85 86 94 99 99 100 101 100 99 100 100 100 100 98 98 100 100 99 100 100 99 100 100 98 97 99 100 99 96 95 94 90 89 96 100 99 99 100 99 98 97 97 99 100 100 100 100 100 100 99 99 100 99 100 101
99 100 98 94 89 80 77 86 98 101 99 99 101 101 95 88 90 98 102 100 96 92 89 90 92 91 90 90 91 90 88 91 97 101 101 102 101 100 99 100 100 99 100 100 100 100 100 99 99 98 97 98 98 100 101 100 99 99 100 100 97 93 92 96 98 97 96 94 95 98 99 99 100 100 99 99 98 99 100 99 99 100 99 99 100
99 99 95 89 85 79 78 87 97 100 99 99 101 101 97 94 96 102 102 99 96 93 92 94 94 93 92 93 93 93 93 95 99 102 102 101 100 100 100 100 100 100 100 100 99 100 99 98 96 93 92 93 93 94 97 100 101 99 97 94 92 90 92 95 95 95 94 90 90 92 95 98 100 99 99 98 95 95 97 98 99 101 100 98 98
95 90 87 84 82 81 85 93 98 99 99 99 100 101 100 99 99 101 102 100 97 95 94 96 96 94 94 95 96 96 97 97 98 100 101 100 100 100 100 99 99 99 99 99 99 100 100 99 97 93 92 92 92 93 95 98 101 100 95 91 91 93 96 98 99 99 98 95 93 92 91 92 93 93 95 94 93 94 97 99 100 101 100 98 98
89 87 86 85 85 88 95 99 97 98 100 100 99 100 101 101 101 101 102 102 99 96 95 97 98 96 96 98 99 100 100 98 97 100 101 100 100 100 100 99 98 99 100 100 100 100 100 99 96 93 93 94 95 96 99 100 100 100 99 98 98 99 99 99 99 100 100 99 98 94 89 88 91 94 95 95 96 97 99 99 100 100 100 100 99
92 93 92 91 91 95 102 101 97 98 100 100 99 100 101 101 101 100 102 102 98 96 98 99 99 99 100 101 102 102 101 97 96 99 101 100 100 100 100 100 99 99 100 100 99 100 100 99 98 97 97 97 97 98 100 101 100 99 99 99 99 99 99 100 100 99 100 100 100 98 95 94 96 98 97 98 100 100 100 100 100 99 99 100 100
95 95 95 94 93 97 103 102 98 98 100 99 100 100 100 101 100 100 102 102 99 98 100 101 100 101 102 103 102 102 99 96 97 100 101 99 97 97 98 99 100 100 100 100 100 100 100 100 100 100 100 99 100 100 100 100 100 99 99 99 99 100 100 100 99 99 100 100 100 100 100 99 98 97 96 97 96 93 92 96 100 101 100 100 99
98 95 95 95 94 97 102 101 99 99 99 100 100 99 99 100 100 100 102 101 99 99 101 102 102 103 103 103 102 100 98 96 97 99 98 95 94 94 94 96 98 99 98 99 100 100 100 100 100 100 100 100 99 100 100 99 100 100 99 99 100 100 100 100 100 100 100 100 100 100 100 100 100 99 99 99 94 87 84 85 89 95 99 100 100
101 97 96 95 95 97 100 100 100 100 99 100 100 100 100 100 99 101 102 100 100 102 102 102 103 103 103 102 101 100 99 98 99 99 97 96 95 93 90 89 89 89 90 93 96 94 93 96 98 99 100 100 100 100 100 100 100 100 100 100 100 98 98 98 98 99 99 98 99 99 98 98 100 100 100 100 98 95 93 88 82 85 93 98 100
103 100 98 98 97 98 100 100 100 100 100 100 100 99 100 100 99 101 102 102 102 103 103 103 103 103 103 102 99 99 99 99 98 95 94 94 92 90 91 92 91 90 92 96 97 94 93 96 98 99 99 99 99 100 98 97 97 97 97 97 96 94 94 95 95 96 95 92 91 91 92 95 100 101 100 100 100 98 99 97 90 89 95 99 100
104 102 100 100 100 100 100 100 99 100 100 100 100 100 100 100 100 101 102 102 103 103 103 103 103 103 101 98 96 96 94 93 94 93 93 95 95 94 96 99 99 97 98 100 100 99 99 100 99 99 100 99 100 100 98 96 95 95 95 96 96 97 98 99 99 97 95 92 91 93 95 98 100 101 99 100 100 99 100 101 98 98 100 100 99
103 101 100 101 100 100 100 100 99 100 100 100 100 100 100 100 100 100 101 101 102 102 102 102 103 102 97 95 96 96 91 90 96 99 99 99 99 99 100 100 100 100 100 99 99 99 100 100 100 100 100 100 100 100 99 97 97 98 99 99 100 101 102 102 101 100 99 99 99 100 101 100 100 100 100 100 100 100 100 100 99 99 100 99 99
102 101 101 101 100 100 100 100 99 100 100 100 100 100 100 100 100 100 101 101 101 102 102 102 102 98 93 95 100 100 94 94 98 100 100 100 100 100 99 98 99 100 100 100 100 100 100 100 99 99 99 99 100 99 99 99 99 100 100 101 100 101 101 101 102 102 101 101 101 101 101 99 99 100 100 100 100 99 99 100 100 100 100 99 100
103 103 102 101 100 100 100 100 100 100 99 100 100 100 100 100 100 100 101 101 101 102 101 101 101 97 93 96 100 99 98 98 99 98 100 100 100 100 99 99 100 100 99 99 99 99 99 99 97 98 99 99 100 100 100 101 101 101 101 99 98 97 97 98 100 101 101 101 101 101 101 100 99 100 100 100 101 100 98 98 100 99 99 99 100
103 102 100 100 100 100 100 100 100 100 100 100 100 100 100 100 100 100 100 101 102 102 101 100 101 100 98 99 100 100 100 100 99 100 100 100 100 100 99 99 99 97 95 97 99 99 100 99 98 100 100 100 100 101 101 102 102 101 100 97 95 95 95 96 99 101 101 100 100 100 100 100 100 101 100 99 101 101 99 99 100 100 100 98 97
102 101 100 100 100 99 100 100 99 100 100 100 100 100 100 100 100 100 99 100 101 101 100 100 100 100 100 100 99 100 100 99 100 101 99 96 98 101 99 97 96 93 92 95 99 101 101 101 101 101 100 99 101 102 102 101 100 99 98 96 94 95 95 95 96 98 99 100 100 100 100 100 100 100 98 96 98 99 99 100 100 100 100 99 97
101 102 102 100 100 100 100 100 100 100 100 99 100 100 100 99 100 100 100 100 100 100 101 100 99 99 100 100 100 100 100 100 101 100 96 92 96 101 101 98 96 93 92 96 101 102 101 101 101 101 99 99 100 102 102 101 100 98 97 96 96 97 98 98 98 98 98 100 100 99 100 100 101 101 99 97 97 97 96 97 97 98 100 100 99
100 104 104 101 100 100 100 100 100 100 100 100 100 100 100 100 100 100 100 100 100 101 102 101 100 100 100 100 100 100 99 100 100 97 93 94 99 101 100 98 94 91 91 96 101 103 102 102 101 99 98 98 99 100 100 101 101 100 100 100 100 100 101 101 101 101 100 100 100 100 100 100 100 101 101 100 99 98 98 97 96 97 98 99 99
99 102 103 101 100 100 100 100 100 99 100 100 100 99 100 100 100 100 100 101 100 101 103 103 102 102 101 101 101 101 101 102 100 95 93 96 99 100 98 97 94 91 90 92 95 96 97 98 99 98 98 98 99 99 99 101 102 101 101 101 101 101 102 102 102 102 101 101 100 100 100 100 100 100 101 101 100 100 100 100 99 99 98 98 98
99 100 101 100 100 100 100 100 100 100 100 100 100 100 100 100 102 101 100 100 100 101 102 103 103 103 103 103 103 102 102 101 99 96 95 96 98 99 100 98 95 93 91 89 89 89 90 91 92 94 95 96 96 98 100 102 103 102 101 102 102 102 102 102 102 101 101 101 101 100 100 100 100 100 101 101 100 100 100 100 100 100 99 99 99
100 100 101 100 100 100 100 100 100 100 100 99 100 100 99 99 101 101 100 100 100 100 101 102 103 103 103 102 101 100 99 98 96 95 95 95 97 99 101 100 97 96 94 93 91 90 90 91 91 93 94 94 95 98 100 101 102 102 102 102 102 101 101 100 100 101 101 101 100 100 100 100 100 100 100 101 101 100 100 100 100 100 100 100 100
100 100 100 100 100 100 100 100 100 100 100 100 99 100 99 99 99 100 100 100 100 100 100 100 101 103 103 101 99 98 97 97 97 96 94 94 97 100 102 101 100 99 98 97 97 96 96 95 95 96 96 96 96 98 100 101 102 102 102 102 101 100 100 100 99 100 101 101 100 100 100 100 100 100 100 100 100 100 100 100 100 100 100 100 100
100 100 100 100 101 100 100 100 100 100 101 100 98 97 97 97 97 98 99 100 100 100 100 99 100 103 103 101 99 99 97 96 96 94 94 95 97 99 100 100 100 101 101 101 101 101 101 101 101 100 100 99 99 99 100 101 101 102 103 103 102 101 101 100 100 100 100 100 100 100 100 100 100 100 100 100 100 100 100 99 99 100 100 99 100
101 101 101 103 103 102 102 103 102 103 104 102 100 99 97 96 96 96 97 98 99 99 100 99 99 101 102 101 100 98 97 97 97 97 98 99 98 97 96 96 96 97 98 98 100 101 102 103 104 104 104 103 103 103 102 102 102 102 102 103 103 102 102 102 102 101 101 100 100 100 100 100 100 100 100 100 100 99 100 100 99 100 100 100 100
103 102 103 105 104 103 105 104 104 105 105 104 103 102 100 99 99 97 97 98 99 99 100 100 100 100 101 101 101 100 100 101 101 101 101 101 101 100 99 98 97 97 96 95 96 97 98 100 101 101 103 104 104 103 103 103 103 103 103 103 103 102 102 102 102 102 102 101 100 101 101 101 101 101 100 100 100 100 100 101 102 102 102 101 101
103 102 104 105 104 104 105 104 104 105 104 104 105 104 103 103 102 100 99 100 100 100 100 100 101 103 103 101 102 103 103 102 100 100 101 101 101 101 101 100 100 100 99 98 97 97 97 97 97 97 98 99 99 100 101 102 102 103 104 105 104 103 102 101 100 100 101 101 101 102 102 102 102 102 101 100 100 101 101 101 102 102 102 102 101
103 103 104 103 103 104 104 104 104 105 104 104 105 104 104 104 102 100 101 100 99 100 100 99 100 102 102 102 103 102 101 100 100 100 100 100 100 100 100 100 100 101 100 100 100 100 100 101 101 100 98 97 97 96 96 96 96 96 96 97 98 98 98 98 98 98 99 99 99 99 100 99 99 99 98 97 96 96 96 96 96 97 98 99 99
101 103 103 103 103 103 103 103 104 104 104 105 105 104 105 104 101 99 100 100 100 100 100 99 100 100 100 100 101 100 99 100 100 99 100 100 100 100 100 100 100 100 100 100 100 101 101 103 103 103 102 101 100 99 98 96 94 93 92 91 92 91 90 90 91 92 93 94 95 96 96 96 96 95 94 94 93 92 91 90 89 89 90 91 93
101 101 101 102 103 103 103 103 102 102 103 103 103 104 105 104 103 102 100 100 100 100 100 100 100 100 100 100 100 100 100 101 100 100 100 100 99 100 100 100 100 100 101 101 102 102 102 102 102 101 100 100 100 100 100 99 97 95 94 94 93 92 90 88 86 86 86 87 89 90 91 92 92 92 92 92 91 90 89 87 86 84 84 83 84
103 102 101 101 101 101 103 104 103 103 104 103 102 102 103 103 103 103 102 101 101 100 100 100 100 100 100 100 100 99 100 100 100 101 100 98 98 100 100 100 100 100 100 101 102 103 104 104 104 104 103 103 102 102 102 103 102 100 99 98 97 96 94 92 89 87 85 84 83 84 85 86 87 88 89 89 89 89 88 87 85 83 81 80 79
102 102 101 101 100 100 101 102 102 103 103 104 104 104 103 102 103 103 102 102 102 101 100 100 100 100 100 101 100 101 101 101 100 100 99 99 99 99 99 99 100 101 101 101 102 103 104 104 105 105 105 105 105 104 104 104 104 103 102 101 100 100 99 98 96 94 92 89 87 84 83 81 81 82 83 85 87 88 87 87 86 84 82 80 78
100 100 100 100 100 100 100 100 100 101 101 102 102 102 102 103 103 103 103 103 103 102 102 102 101 101 101 101 101 101 101 100 100 100 100 101 102 102 102 101 101 99 99 99 99 99 101 102 102 104 105 105 106 107 107 107 107 107 105 103 103 102 101 100 99 97 96 95 93 91 88 86 84 81 79 79 81 83 85 86 87 86 85 83 81
Wind_Speed
58 57 55 52 48 44 43 42 42 43 43 43 46 47 45 41 37 34 32 32 32 32 31 30 29 28 28 30 31 30 30 30 30 31 31 31 30 29 28 27 26 25 24 23 22 21 20 19 17 17 18 18 16 13 12 12 12 12 14 15 14 16 16 16 18 17 16 20 22 19 15 11 8 7 7 7 9 11 13 14 15 15 15 15 15
56 58 58 56 53 48 43 42 43 43 42 42 44 46 46 42 37 34 33 32 31 32 31 30 30 29 29 30 31 31 30 30 30 31 31 31 30 29 28 27 26 26 25 24 23 22 21 19 17 18 19 19 17 15 14 12 11 11 12 13 13 14 14 14 15 16 16 18 24 25 21 18 12 6 7 10 10 11 12 12 13 14 14 15 15
53 56 58 57 56 52 46 43 43 43 42 42 42 44 46 42 38 35 33 32 31 31 32 31 30 29 29 29 30 31 31 30 31 31 31 31 30 29 28 26 26 26 24 23 22 22 22 20 18 18 19 18 18 18 17 14 12 12 12 12 12 12 13 13 13 15 16 16 22 28 26 23 20 10 5 9 13 15 14 12 12 13 13 14 15
51 54 57 57 58 56 49 44 42 42 42 42 42 43 45 43 38 35 33 31 31 31 32 31 30 29 29 29 30 31 31 31 31 31 31 30 29 28 27 26 26 26 25 23 22 22 22 20 18 18 18 18 18 17 15 13 12 13 14 13 13 13 14 14 14 14 16 16 18 27 28 24 23 18 7 6 12 16 17 15 13 13 13 13 14
52 53 55 56 58 58 51 44 41 41 41 42 41 42 43 42 39 35 33 31 31 31 32 31 30 29 29 28 29 30 30 31 31 30 29 28 27 27 27 26 26 26 25 24 23 22 22 20 18 18 18 17 16 13 11 11 11 12 13 13 13 12 12 15 16 16 19 18 16 23 28 24 23 23 15 8 10 13 15 16 16 15 13 13 13
52 52 54 55 57 58 52 44 41 40 40 41 41 41 42 42 39 35 33 31 31 31 32 31 30 29 28 27 28 28 29 30 30 29 28 27 26 27 26 26 26 26 25 24 23 23 22 20 18 17 16 14 12 11 10 11 11 12 12 12 13 13 13 14 16 17 19 20 16 19 27 26 22 22 18 10 9 11 12 13 15 16 16 15 14
50 51 53 54 57 59 53 45 40 39 39 39 40 40 41 41 40 36 33 32 32 31 31 31 30 29 28 27 27 28 28 28 29 28 27 26 26 26 25 25 25 26 26 24 24 24 23 20 19 16 14 13 11 11 12 12 14 15 15 15 15 15 16 15 15 16 18 20 18 17 24 26 20 20 20 13 9 11 11 10 11 12 14 15 15
48 49 52 53 55 59 55 46 39 38 38 38 39 39 39 41 40 36 33 33 32 31 30 30 29 28 28 27 26 27 27 28 28 27 27 26 25 24 24 24 25 25 25 24 24 24 23 21 20 17 13 13 12 12 13 13 16 17 17 19 19 18 19 18 17 16 16 19 20 17 20 24 21 22 24 18 13 13 11 11 12 10 9 11 15
47 47 50 52 54 57 55 47 39 37 38 37 38 38 39 40 39 36 33 33 32 30 30 29 29 28 28 27 26 26 27 27 27 27 26 25 24 22 23 24 24 24 24 24 24 25 24 22 20 17 14 13 13 14 14 14 15 17 17 18 19 19 19 20 19 18 15 17 20 18 19 23 22 22 22 19 14 13 11 10 11 10 8 10 14
45 44 46 49 53 56 54 47 39 36 37 37 37 37 38 39 39 36 34 33 32 30 29 29 28 28 27 26 26 26 27 27 26 25 25 23 22 22 23 23 23 24 24 24 25 25 25 22 20 18 16 16 16 15 15 15 15 17 18 18 18 18 19 20 21 20 17 15 17 19 20 23 22 20 20 19 15 11 11 11 10 10 9 11 14
42 42 44 48 53 55 53 47 39 35 35 35 36 36 37 38 38 36 34 33 31 30 29 28 27 27 26 26 25 25 26 26 24 23 23 21 21 22 23 22 22 23 24 24 25 25 25 22 19 18 18 18 17 15 15 15 16 17 18 17 16 16 17 19 20 19 18 16 16 17 18 21 23 21 20 19 17 14 13 13 11 10 10 11 13
42 41 43 48 52 54 53 47 40 35 33 34 34 35 36 37 37 36 34 32 30 29 28 27 26 26 26 25 25 25 25 24 22 22 21 20 19 21 22 21 20 22 24 24 25 26 25 22 18 18 18 17 16 14 14 15 16 17 17 17 18 17 15 15 16 17 17 16 15 17 18 19 22 23 20 17 17 18 17 16 15 15 14 14 14
42 41 45 50 52 53 51 47 41 35 32 32 33 34 35 36 36 36 33 31 30 29 28 26 25 25 25 24 24 24 24 23 21 21 20 20 19 19 22 22 20 21 23 23 24 25 24 21 18 18 18 17 15 14 13 14 16 17 16 17 21 22 21 19 18 18 18 18 18 19 19 19 23 28 27 21 20 24 24 23 23 21 20 19 17
38 42 48 50 51 51 50 48 44 37 31 30 31 32 33 34 35 35 32 30 29 28 27 26 25 24 24 23 23 23 23 21 20 20 20 20 19 19 21 22 20 20 21 21 23 24 22 20 19 17 16 16 15 13 13 13 15 15 14 15 18 21 23 24 24 23 22 22 21 21 20 19 21 26 30 31 32 32 30 29 28 26 25 24 24
42 46 48 50 50 48 48 49 45 39 32 30 30 31 31 33 34 34 31 30 29 27 26 25 24 24 23 22 22 23 21 20 20 20 20 20 20 19 21 22 21 21 21 22 23 23 21 19 18 16 15 16 16 14 13 12 14 15 14 16 18 19 20 22 24 25 25 24 22 20 18 18 17 18 22 28 33 34 32 30 30 29 29 30 29
47 47 48 50 47 44 48 51 46 39 34 30 29 29 31 32 33 33 31 29 28 27 26 25 24 24 23 22 22 22 20 19 19 20 20 20 20 21 23 24 24 24 25 25 24 23 21 19 17 15 14 16 18 16 13 13 15 17 19 20 21 21 20 19 19 21 24 24 22 19 15 15 16 15 15 17 22 27 29 30 30 30 30 30 30
45 45 45 44 42 45 50 50 45 38 34 31 28 28 30 31 32 32 30 28 27 26 26 25 23 23 22 22 22 22 19 18 18 20 20 20 20 21 23 24 25 25 25 25 24 23 22 19 16 15 16 18 19 17 15 15 15 17 18 19 21 23 23 20 17 18 20 21 21 19 16 15 14 14 14 14 15 17 19 23 25 26 25 25 27
47 43 38 36 41 49 51 46 41 37 34 31 28 27 29 30 31 30 28 27 25 25 26 25 23 22 21 21 21 21 19 17 18 19 20 20 21 22 21 21 21 21 22 23 23 23 23 20 16 17 19 21 21 19 16 17 18 19 17 15 18 19 17 16 15 15 18 19 19 19 18 17 16 16 16 16 16 16 17 18 17 18 20 20 20
44 36 34 38 45 51 51 44 38 35 34 30 27 26 27 28 29 28 27 25 25 25 26 24 22 21 21 20 20 20 19 17 17 19 19 20 21 20 19 19 18 18 19 21 22 22 22 20 18 19 22 23 22 20 19 18 20 22 19 15 16 15 13 12 12 13 16 17 16 17 17 17 18 19 19 19 19 20 22 23 21 21 22 21 19
35 33 38 45 48 52 52 43 34 33 32 28 25 25 26 27 28 27 26 25 25 25 25 23 21 20 20 20 19 19 18 17 16 17 19 20 20 18 18 18 17 17 18 19 19 21 22 21 20 22 23 23 22 20 20 19 20 22 22 20 20 18 15 14 14 14 16 16 16 16 17 17 18 19 19 20 21 21 23 25 26 27 27 26 25
35 40 46 49 50 54 52 42 32 30 29 25 23 24 25 26 27 26 25 25 24 24 23 22 21 20 19 19 18 18 17 16 15 16 19 22 22 18 17 18 17 16 16 18 20 22 23 23 24 26 26 26 25 23 22 21 21 23 24 24 24 22 19 18 17 17 18 18 17 17 17 17 17 18 18 20 22 22 23 24 26 28 28 29 29
44 49 52 54 56 57 51 39 30 27 25 23 22 23 24 26 26 25 25 24 23 22 22 21 20 19 18 18 18 17 16 16 15 16 19 21 24 22 18 17 16 16 17 19 21 23 23 24 26 27 27 27 27 27 26 25 24 25 26 27 26 25 23 22 21 22 22 22 21 20 19 17 17 17 18 18 19 20 22 24 25 26 26 26 25
52 55 57 58 58 54 44 33 26 24 23 22 21 22 24 26 26 25 24 23 22 21 21 21 19 18 17 16 16 16 15 15 14 16 18 19 23 24 19 16 16 17 18 19 20 20 21 22 23 25 25 24 23 22 22 21 22 24 24 25 24 24 22 21 22 23 24 24 23 22 20 19 18 18 18 18 17 17 19 21 23 25 27 26 25
59 59 58 56 52 45 37 28 23 22 21 21 20 21 24 25 25 24 23 22 21 21 21 19 17 16 15 15 15 14 14 13 13 15 16 16 17 18 17 15 15 16 16 16 14 14 16 18 19 20 19 18 18 18 18 18 20 21 22 22 22 22 22 23 24 25 25 25 24 23 22 20 19 18 17 16 16 16 16 17 19 21 24 25 26
56 53 52 50 45 38 32 27 22 20 20 20 20 21 23 24 24 23 22 21 21 21 19 18 16 15 14 14 13 14 13 13 12 13 15 16 16 17 18 18 17 15 15 13 12 12 13 15 15 15 15 15 16 18 19 20 21 22 21 21 22 22 21 22 23 24 24 22 20 20 20 20 19 19 18 16 16 16 16 16 17 19 20 22 24
49 47 47 45 39 34 30 26 22 20 19 18 19 21 22 23 23 23 21 20 20 20 18 16 15 14 13 13 13 14 13 12 12 13 15 18 20 22 24 25 22 19 16 13 12 12 13 13 14 15 16 18 18 19 21 22 22 22 22 22 22 22 22 21 21 21 22 21 18 15 15 16 18 19 19 20 20 20 18 17 17 18 19 21 22
46 46 44 41 36 32 30 26 22 21 19 18 18 20 21 22 23 22 21 20 19 18 16 14 14 14 13 12 13 14 12 11 11 12 14 15 17 19 22 24 24 24 23 20 18 17 17 18 18 18 18 19 19 20 21 22 23 24 24 25 25 25 25 25 24 24 25 25 25 21 17 15 16 16 17 20 24 24 23 22 21 20 20 21 22
45 44 42 39 34 31 29 26 23 21 20 18 18 19 20 22 22 21 19 18 16 15 13 12 12 12 12 13 14 13 11 10 10 11 12 12 13 13 14 15 17 19 21 20 19 18 19 20 21 22 22 23 23 23 24 25 26 26 26 26 28 29 29 29 30 30 30 31 31 30 27 24 21 19 18 19 22 23 23 23 24 24 23 22 22
44 42 41 37 32 29 29 28 24 21 19 18 18 18 19 20 19 18 17 15 14 13 11 11 11 11 13 15 14 12 10 9 10 11 11 11 10 8 6 7 9 12 14 14 14 14 15 16 19 20 21 22 23 24 25 26 26 27 27 28 29 29 29 29 30 31 33 33 33 33 32 28 22 18 18 19 20 21 21 22 23 23 23 23 22
44 42 40 36 31 28 29 29 25 21 19 17 17 17 17 17 18 17 15 13 13 12 11 10 11 13 15 14 11 8 7 7 8 8 8 8 7 6 6 6 7 10 12 13 15 16 15 15 16 16 16 17 18 19 21 22 22 23 23 24 24 24 24 24 25 26 27 28 29 28 27 25 21 17 16 17 18 18 19 21 22 20 20 21 21
43 42 39 35 31 28 27 26 24 21 18 16 15 15 15 16 16 15 13 12 11 10 10 11 12 14 15 12 7 3 3 4 5 5 6 6 7 9 10 9 9 12 13 13 14 15 14 14 16 16 16 18 19 20 21 21 20 19 19 18 19 19 19 19 20 21 21 22 23 23 23 24 23 19 17 17 18 18 16 18 20 20 19 20 20
41 40 37 33 30 28 25 23 21 20 17 14 13 14 14 15 15 14 13 11 8 7 10 12 14 15 15 11 4 3 3 5 5 4 4 6 8 11 13 12 13 15 15 13 14 16 16 17 19 20 20 20 20 19 17 16 15 15 15 16 16 15 15 15 15 16 17 19 21 23 23 23 22 21 20 20 21 22 19 16 17 19 20 21 21
38 37 34 32 29 27 23 20 19 18 16 14 12 12 13 14 14 13 12 10 8 7 6 8 9 11 12 11 11 10 6 6 5 4 5 8 11 12 13 15 17 19 17 16 17 19 19 20 20 20 18 16 15 14 12 12 12 12 12 13 13 13 13 13 12 13 14 16 18 19 20 20 19 20 20 20 21 22 22 20 18 17 20 22 21
35 33 31 29 27 25 21 19 18 16 14 12 11 10 11 12 13 12 11 10 12 13 9 9 11 12 12 13 12 10 10 9 6 5 9 13 14 14 15 17 19 19 18 17 17 17 17 17 16 15 14 13 12 12 11 10 10 10 10 11 12 12 13 13 13 13 13 14 15 15 16 17 17 18 19 19 19 18 19 21 20 18 18 21 22
33 31 29 27 25 23 21 19 17 15 13 11 9 8 9 10 12 11 11 11 14 17 17 17 17 16 14 13 14 16 16 14 8 7 13 17 16 16 18 18 16 16 15 14 15 15 14 14 14 13 13 13 12 12 11 10 10 10 10 10 11 12 13 13 14 14 14 14 14 14 14 15 16 16 17 18 18 17 17 18 21 20 18 18 20
33 32 29 26 24 22 21 19 17 15 12 9 7 7 7 8 10 11 10 11 14 17 20 20 19 17 17 17 16 17 18 16 11 11 15 15 12 13 15 15 13 12 11 11 12 12 12 12 13 12 13 13 12 12 11 10 10 10 10 10 10 11 11 12 12 13 14 15 15 15 15 15 15 16 17 17 18 19 19 18 20 21 20 18 18
33 31 29 26 23 21 20 19 16 14 11 8 6 6 6 7 9 10 10 11 13 16 18 19 19 19 19 18 18 18 17 15 14 15 14 9 7 9 12 11 10 9 9 9 10 10 10 11 11 11 11 11 11 11 10 10 9 9 9 9 9 9 9 10 10 11 12 13 14 15 15 16 15 15 16 16 17 18 19 20 20 22 22 21 20
33 29 27 25 22 21 20 18 16 14 11 8 6 6 6 6 8 9 10 10 11 13 14 16 18 18 18 18 17 17 17 17 17 16 12 9 8 9 9 9 8 8 8 9 9 9 9 9 9 9 9 9 9 9 9 8 8 8 8 8 8 8 7 7 8 9 10 10 11 12 13 14 14 14 14 15 15 16 17 18 19 20 21 22 23
34 29 25 23 21 21 20 18 16 15 12 10 8 7 6 6 6 7 8 9 10 11 12 13 15 16 16 16 15 15 15 15 16 15 13 10 9 8 8 8 8 7 7 8 7 7 7 7 8 8 8 8 8 8 7 7 7 7 7 7 7 6 6 6 5 6 7 7 8 9 10 11 12 13 13 13 14 15 15 16 17 18 19 20 22
33 29 26 23 22 21 19 17 16 15 13 11 9 7 5 6 6 6 7 7 8 9 9 10 11 12 12 12 12 12 12 12 12 12 11 9 8 7 7 7 7 7 6 6 6 6 6 6 7 7 7 7 7 7 7 7 7 6 6 6 6 5 5 4 4 4 4 4 5 6 7 8 9 10 11 12 12 13 14 14 15 16 17 18 20
31 29 25 23 22 21 19 18 16 14 13 12 10 7 5 5 5 6 6 6 7 7 8 8 8 9 10 9 9 9 10 10 10 10 10 9 8 8 7 7 7 7 6 6 6 6 6 6 6 6 6 7 7 6 7 6 6 6 5 5 5 4 4 4 3 3 2 2 3 3 3 4 5 7 8 9 10 10 12 12 13 14 15 16 18
30 28 25 23 22 21 20 19 17 15 13 11 9 7 5 4 3 4 4 4 5 6 6 7 8 8 8 8 8 9 9 10 10 9 8 8 8 8 8 8 8 7 7 7 7 6 6 6 6 6 6 7 6 7 7 6 6 6 5 5 5 5 4 4 3 3 3 3 3 2 2 2 3 3 4 5 7 8 9 10 11 12 13 15 16
29 27 25 23 22 21 20 19 18 16 14 12 9 8 6 4 3 3 2 2 3 4 5 6 7 8 8 7 8 8 8 8 7 6 7 7 8 8 8 8 8 8 8 8 8 8 7 7 7 7 7 7 7 7 7 7 7 6 6 6 6 5 5 5 4 4 4 3 3 3 3 2 2 2 2 3 3 4 5 7 8 9 10 12 13
28 27 25 23 22 21 19 18 18 16 15 13 10 9 7 5 4 3 2 1 1 3 4 5 7 8 7 7 7 7 6 6 6 5 6 7 7 8 8 8 8 9 9 9 9 9 9 9 8 8 8 8 8 8 8 8 8 8 7 7 7 7 6 6 6 5 5 5 5 4 4 3 2 2 2 2 2 3 3 3 4 5 6 8 10
29 27 25 24 23 21 19 18 17 15 14 13 11 10 8 6 5 4 2 1 1 2 3 4 6 7 7 7 7 6 6 7 6 6 7 7 8 8 9 8 9 9 9 9 9 9 9 9 9 9 9 9 9 9 9 9 9 9 9 9 9 8 8 8 7 7 7 7 6 6 6 5 4 4 3 3 2 2 2 2 2 3 3 4 6
30 28 26 24 23 22 20 19 17 15 15 13 12 11 10 8 6 5 3 2 1 1 2 3 4 5 6 7 7 7 7 7 8 8 8 8 9 9 9 9 9 9 9 10 10 10 10 10 10 10 10 10 10 10 10 10 10 10 10 10 10 9 9 9 9 9 9 8 8 7 7 6 6 5 5 4 4 3 3 3 2 2 2 2 3
31 30 27 26 24 22 21 19 17 16 15 14 12 11 10 9 7 6 4 3 2 1 2 2 3 4 5 6 7 7 8 8 9 9 9 8 9 9 9 10 10 10 10 10 10 10 11 11 11 11 11 11 11 11 11 11 11 11 11 11 10 10 10 10 10 10 9 9 9 9 8 8 8 7 7 6 5 5 4 4 4 3 3 3 3
30 30 29 27 25 24 22 21 19 17 16 14 12 11 10 9 8 7 5 4 2 1 2 2 3 4 5 6 7 8 8 9 9 9 9 9 9 10 10 10 10 10 10 11 11 11 11 11 11 11 11 11 11 11 11 11 12 11 11 11 11 10 10 10 10 10 10 10 9 9 9 9 9 9 8 8 7 7 6 6 5 5 4 4 4
29 28 28 27 26 25 24 23 21 20 18 16 14 12 11 9 8 7 6 5 3 3 2 3 3 4 5 6 7 8 9 9 9 10 10 10 10 10 10 10 10 11 11 11 11 11 11 11 11 12 12 12 12 12 12 12 12 12 11 11 11 11 11 11 10 10 10 10 10 10 10 10 10 10 9 9 9 8 8 7 7 7 6 5 5
29 28 27 26 25 25 24 23 22 21 20 19 17 15 13 12 10 9 8 7 6 5 4 4 5 5 6 7 7 8 9 9 10 10 10 10 10 10 11 11 11 11 11 11 11 12 12 12 12 12 12 13 12 13 13 12 12 12 12 12 12 11 11 11 11 11 10 10 10 10 10 10 10 10 10 10 10 9 9 9 8 8 7 7 6
29 28 27 26 25 24 23 23 22 21 21 20 19 18 16 14 13 12 11 9 8 8 7 7 7 7 7 7 8 8 8 9 9 10 10 10 10 10 10 10 11 11 11 11 11 11 12 12 13 13 13 14 14 13 14 13 13 13 13 13 13 12 12 12 12 12 11 11 11 11 10 10 10 10 10 10 10 10 10 10 9 9 9 8 8
Wind_Direction
337 337 337 335 329 320 312 305 298 291 284 277 267 259 257 259 262 267 271 273 273 273 274 274 274 270 265 260 259 258 256 255 254 254 254 255 256 257 258 257 258 259 261 260 259 256 253 254 258 262 265 265 263 258 253 252 252 254 256 256 253 250 249 248 255 265 260 243 240 247 251 256 268 263 249 243 232 225 222 218 215 215 218 224 230
333 335 336 335 333 326 316 307 299 292 286 278 269 260 256 257 261 265 270 273 273 273 273 273 272 269 265 260 258 257 255 254 254 253 254 255 256 257 256 255 255 256 256 256 256 253 251 250 254 258 262 265 265 260 256 255 250 245 247 252 255 253 248 247 251 262 267 250 237 244 256 258 256 269 275 262 254 244 234 226 221 215 215 220 225
332 332 334 334 334 330 321 309 301 294 287 280 271 262 256 256 259 263 269 273 273 273 272 272 271 268 265 261 257 256 254 254 254 254 254 255 256 255 255 253 252 252 252 252 251 250 249 250 252 256 260 264 266 264 263 263 261 260 258 252 252 253 250 251 252 255 266 262 243 240 251 259 254 251 284 274 261 253 245 240 235 226 219 219 222
331 331 332 334 334 332 325 314 303 295 288 281 273 264 257 255 258 262 268 272 273 272 272 272 271 268 266 262 257 255 255 255 255 255 255 255 255 254 253 251 250 249 248 249 249 246 246 249 252 254 258 261 262 262 262 265 265 267 269 266 260 255 251 251 253 254 259 264 253 241 246 260 256 241 243 278 264 255 251 249 245 239 232 228 226
330 329 331 333 335 334 328 317 306 298 291 282 275 267 258 255 257 261 267 271 272 272 272 271 270 268 266 263 260 257 256 256 256 255 255 254 253 252 251 250 249 248 247 246 246 243 243 246 249 252 254 253 253 253 255 261 263 264 269 273 272 263 253 250 252 254 254 258 260 245 241 255 260 243 236 265 273 260 254 251 249 247 243 240 237
328 328 329 332 335 335 330 320 310 302 293 284 276 268 260 255 256 260 265 270 272 271 271 272 270 269 267 265 262 260 257 257 256 256 255 253 252 251 250 249 248 247 246 244 241 238 239 242 246 247 243 238 239 245 252 258 262 266 269 271 274 268 261 256 252 252 252 252 259 251 241 248 261 251 239 248 270 262 254 254 255 254 252 250 249
324 325 327 330 335 336 331 322 312 303 294 285 277 270 262 256 255 259 265 270 271 271 272 272 272 271 268 264 262 260 258 257 256 256 255 253 251 250 250 248 247 246 244 242 238 234 234 238 239 236 232 233 239 248 258 264 266 271 273 272 272 268 264 262 255 250 250 248 250 253 245 246 258 255 240 236 259 263 252 247 251 256 258 259 260
321 323 325 327 334 337 332 324 315 305 296 287 278 271 264 257 255 258 264 269 272 272 273 273 272 270 267 264 261 259 258 256 254 254 254 253 252 251 250 248 246 245 243 240 236 231 230 234 233 230 232 242 249 254 260 267 270 272 272 270 269 267 264 263 257 249 247 246 245 247 247 247 254 255 247 246 258 261 253 250 254 256 258 264 265
317 320 323 326 332 337 333 325 318 308 297 288 279 272 265 258 255 256 263 269 272 273 273 273 271 269 266 264 260 258 257 255 254 254 254 254 254 252 250 248 246 244 241 238 233 228 229 231 229 229 237 246 249 252 256 261 265 267 268 267 267 266 263 259 254 247 243 242 242 240 243 246 250 254 252 250 253 255 257 261 258 251 249 259 263
314 316 321 325 332 336 334 327 319 310 299 289 281 274 266 260 256 256 262 269 272 273 273 272 270 267 265 263 261 259 257 256 255 255 255 256 254 250 248 247 245 241 237 235 231 226 227 230 229 230 236 240 241 246 252 256 260 263 265 265 262 261 261 258 253 246 239 237 238 237 238 241 243 247 248 247 249 255 258 256 251 253 260 265 264
313 315 321 327 332 335 335 329 321 312 302 292 283 276 268 261 256 256 261 268 272 273 273 271 268 266 264 264 262 261 259 257 255 254 254 255 254 252 248 244 242 239 234 232 229 226 226 228 228 229 231 234 237 244 251 255 259 263 265 266 262 255 253 255 255 251 242 235 233 233 235 238 239 241 242 244 245 249 253 256 260 266 269 267 264
315 315 324 330 331 334 335 331 324 315 305 294 285 278 269 262 257 255 261 268 272 273 272 270 267 265 265 264 263 262 261 259 255 251 249 247 248 251 251 244 236 234 234 231 227 225 226 225 224 227 231 233 236 242 250 252 254 258 260 261 261 260 258 255 255 255 254 247 238 233 232 234 236 236 235 236 239 241 246 253 260 265 266 265 267
316 320 328 331 331 332 333 331 326 318 306 295 287 278 270 263 257 256 261 269 271 271 271 270 266 264 265 265 264 263 261 258 254 249 245 242 238 240 247 247 238 231 232 231 226 225 226 225 221 224 231 234 237 246 256 254 248 250 251 248 248 252 260 267 269 267 267 265 259 251 246 241 238 237 235 233 237 240 244 249 254 259 263 264 266
322 327 329 330 330 329 330 331 328 320 308 296 286 278 271 264 258 256 262 268 270 270 270 269 267 265 265 266 265 264 261 258 253 247 242 240 233 227 237 245 243 237 234 231 227 226 225 222 220 224 233 238 242 257 271 259 241 242 251 253 250 248 249 258 266 270 272 271 267 265 263 257 250 247 244 242 243 244 245 249 253 256 260 262 262
328 329 328 328 328 327 327 328 326 321 310 296 285 278 271 263 258 257 262 268 270 270 269 268 266 266 266 267 267 266 264 259 252 245 240 236 230 223 227 235 239 239 238 232 228 226 222 219 222 228 238 245 250 264 278 260 237 237 248 255 259 258 250 247 251 257 264 270 273 273 271 265 261 259 252 247 246 244 244 248 252 254 258 260 261
329 327 326 327 327 326 325 325 323 320 310 296 284 277 270 263 258 258 263 269 269 268 267 265 265 267 269 269 269 268 266 258 249 243 238 233 227 221 223 227 230 233 234 231 229 226 220 217 225 233 239 246 251 261 273 263 245 246 252 254 254 256 258 254 248 248 253 261 272 280 279 273 267 263 256 248 244 243 243 246 249 251 254 257 259
327 324 325 325 325 326 326 323 320 318 310 296 284 276 270 264 259 259 265 269 267 266 266 265 265 267 269 270 271 271 267 256 246 241 235 228 221 219 221 226 228 231 233 231 230 227 220 219 230 237 236 242 249 256 265 266 262 262 265 266 261 256 258 258 253 249 249 252 263 272 277 279 277 269 259 246 239 238 236 237 242 244 246 250 255
325 323 322 323 323 326 327 323 319 317 310 298 286 277 270 265 260 261 266 267 265 264 264 264 264 266 269 271 272 271 265 253 243 238 231 221 215 214 219 225 229 232 233 232 231 230 226 227 236 240 236 239 247 253 256 258 267 274 276 275 269 264 265 267 262 257 253 252 256 259 260 263 265 264 259 248 240 238 234 234 237 234 234 239 246
325 322 319 320 321 326 328 324 319 317 311 301 288 277 270 264 261 262 265 263 261 261 261 263 265 268 270 272 270 268 261 249 238 233 226 213 208 211 217 224 229 231 230 230 231 233 235 237 241 239 235 237 243 251 254 252 260 271 277 275 269 266 271 278 276 269 261 258 260 260 258 257 253 252 253 248 242 239 240 246 249 242 238 239 240
325 319 319 320 321 326 328 324 318 316 312 302 289 276 268 262 259 261 262 259 257 259 260 264 267 269 271 272 268 262 255 246 234 226 218 206 200 210 221 223 226 230 228 225 228 234 239 241 241 238 237 240 244 249 254 253 254 262 269 269 267 269 274 277 275 271 266 263 262 260 259 261 258 254 251 248 245 239 237 242 248 248 247 247 245
321 319 321 321 321 323 325 322 316 315 311 301 287 273 264 259 257 258 258 256 256 258 260 263 267 269 271 269 264 257 250 242 229 219 214 203 195 205 223 224 223 225 224 221 225 234 240 242 241 240 241 245 248 249 251 253 253 255 260 263 265 267 269 270 267 265 263 260 256 254 251 251 253 252 250 248 247 244 239 237 239 244 247 248 247
321 321 322 320 319 321 323 319 314 313 309 298 284 271 260 256 255 255 255 254 256 258 259 262 267 270 269 265 259 252 245 239 226 215 212 205 196 200 217 225 221 220 222 227 233 239 243 245 245 247 247 250 253 256 257 255 252 252 254 258 262 264 263 263 263 263 264 262 259 259 255 248 246 247 246 245 246 246 245 241 239 239 242 246 248
320 319 318 318 318 321 322 317 312 312 307 295 283 270 259 255 254 253 253 255 256 256 257 262 266 269 266 259 253 247 240 235 224 210 208 207 200 200 209 220 223 224 230 236 240 242 245 248 251 254 256 256 256 258 258 255 251 250 251 252 255 257 257 257 256 258 263 264 263 262 260 256 255 254 250 246 247 248 248 248 246 244 244 248 252
319 319 319 320 323 325 324 317 313 313 306 294 281 268 259 255 253 253 253 253 254 254 257 262 266 266 261 251 245 242 235 227 215 204 203 203 197 197 207 216 219 222 227 230 232 234 240 247 254 260 261 257 250 244 242 245 246 245 246 247 249 252 254 252 250 251 256 259 262 262 260 259 260 260 256 252 253 254 255 255 256 253 251 252 255
323 324 325 327 329 329 325 319 317 316 306 293 279 266 258 255 252 251 252 252 251 253 257 262 263 257 250 243 236 232 226 217 205 197 194 191 189 196 207 207 203 205 215 224 230 234 241 249 257 261 258 251 244 239 237 242 246 245 246 250 252 253 250 244 240 241 242 243 248 250 249 248 251 253 255 256 254 252 251 252 253 252 251 251 251
329 330 330 330 331 331 326 322 320 316 306 292 277 265 259 255 252 251 252 250 249 253 257 260 256 247 240 233 222 217 215 208 199 199 201 199 199 202 206 206 204 208 218 230 238 239 242 245 245 245 245 243 241 240 241 244 248 248 247 247 247 246 241 234 232 236 238 239 242 243 241 242 247 251 253 253 252 250 247 246 247 245 244 246 249
333 333 332 332 334 332 327 323 321 315 306 292 277 265 256 252 250 249 249 248 249 254 259 256 247 239 229 216 205 205 209 204 201 206 210 212 213 214 216 218 222 226 233 240 244 240 234 232 231 231 235 237 237 238 239 241 243 245 246 246 245 245 243 242 243 245 246 247 249 251 249 247 248 251 252 254 257 256 254 252 250 246 245 247 249
335 334 333 334 335 332 327 324 320 313 304 292 279 268 258 254 251 249 250 250 252 258 258 248 238 229 212 197 192 197 200 201 204 209 215 225 232 231 230 231 231 234 239 242 245 243 239 236 235 234 234 236 239 240 241 242 243 245 246 248 248 248 247 247 248 248 248 248 249 251 253 253 252 249 248 252 258 258 255 254 252 250 251 253 253
336 336 336 337 337 332 326 323 319 312 303 293 281 271 263 257 254 252 250 250 252 254 245 231 223 212 196 188 186 189 196 209 220 227 231 232 225 219 237 253 249 245 242 239 243 250 249 245 243 242 242 243 245 247 249 250 251 251 250 251 252 253 252 250 249 248 248 249 250 251 253 253 251 245 240 244 251 253 251 251 252 252 254 254 253
338 339 339 339 337 331 324 321 318 312 303 293 281 273 264 256 251 248 246 246 247 240 225 214 206 195 185 179 176 182 202 217 220 226 228 214 200 214 249 256 251 249 243 236 240 247 249 247 245 245 246 247 249 252 256 258 259 258 255 253 253 254 253 251 250 248 247 248 248 248 248 247 243 239 239 241 243 248 252 252 250 251 254 252 249
340 341 341 340 337 331 324 320 317 311 304 293 281 273 264 254 247 245 243 243 240 226 207 197 191 184 177 167 161 182 215 201 196 213 224 216 221 238 237 224 230 246 244 234 231 234 236 238 239 240 243 248 254 259 262 261 259 256 253 250 248 248 248 248 246 244 242 241 241 240 242 243 241 240 241 239 235 235 244 254 253 249 248 246 245
342 340 341 340 337 331 326 322 318 312 305 295 282 272 263 253 247 245 242 236 224 207 195 185 179 178 175 170 187 280 252 206 206 220 223 221 229 234 228 219 222 234 236 229 227 230 233 238 243 247 252 255 259 259 256 251 247 243 242 243 244 243 243 243 242 240 237 235 236 238 239 240 240 239 239 240 236 230 230 241 251 251 247 246 246
343 340 342 343 339 333 330 327 322 316 308 297 285 273 264 255 249 249 245 223 186 164 167 175 181 190 199 217 254 272 251 212 215 226 224 228 229 230 228 222 220 226 232 236 240 244 247 249 251 252 252 252 251 246 239 234 231 231 234 240 244 247 247 246 244 241 237 235 237 238 238 237 237 239 240 241 241 236 229 228 236 248 252 250 249
345 343 345 346 342 338 336 332 328 320 312 302 289 276 267 257 249 251 249 222 185 169 176 201 210 213 220 227 231 223 201 192 196 215 229 231 231 233 236 232 229 234 240 244 249 252 251 250 247 243 238 237 236 234 231 228 228 230 233 238 244 250 252 252 251 247 243 241 239 239 240 238 238 241 243 243 244 244 238 231 228 234 246 250 248
348 348 349 348 346 344 341 336 333 327 319 309 296 279 266 255 247 246 246 229 201 188 193 206 209 208 210 202 185 184 200 212 219 233 239 238 236 240 245 247 245 244 244 245 248 247 242 240 238 233 231 231 232 233 233 231 231 235 238 241 245 248 250 252 253 250 248 246 243 240 240 240 239 238 240 242 243 245 245 241 235 230 232 238 240
352 351 350 350 351 350 344 340 337 333 326 316 302 284 264 251 246 244 240 231 214 202 203 211 213 212 212 206 197 204 223 234 234 238 246 248 243 242 247 253 253 247 242 240 239 235 231 231 230 228 228 228 229 231 232 232 233 236 240 244 247 249 249 250 251 250 248 247 246 244 244 245 243 240 238 239 241 242 242 243 242 238 234 230 229
354 353 351 352 355 354 350 345 341 338 334 324 311 296 271 250 245 244 241 233 221 213 213 218 221 222 223 221 220 227 237 239 231 233 245 255 249 243 246 249 247 243 237 233 229 225 224 223 222 223 224 224 226 230 231 234 236 237 239 242 243 244 247 247 247 248 249 247 247 247 245 245 245 243 240 239 239 239 239 239 239 241 241 238 235
354 352 352 354 358 358 355 351 347 345 344 339 329 314 287 258 244 245 247 238 227 223 222 223 226 231 233 234 234 238 244 244 239 242 252 259 255 252 249 241 238 236 230 225 222 218 216 216 216 217 218 218 222 226 226 230 234 232 231 236 237 236 238 237 237 240 245 246 248 248 246 246 245 244 243 241 239 239 239 238 237 238 237 237 237
352 352 353 357 1 2 0 358 354 352 351 350 346 331 304 276 259 255 255 249 239 233 229 228 232 236 239 242 244 244 245 245 243 246 252 256 255 254 244 233 232 228 220 217 217 212 210 212 211 210 211 211 213 215 216 219 223 223 223 226 227 227 226 225 229 236 240 243 246 246 247 248 247 245 244 243 241 240 240 239 240 239 236 235 234
352 352 355 359 3 5 5 5 3 359 356 356 354 345 324 303 287 276 270 261 252 247 243 241 242 243 243 244 245 243 241 242 242 245 249 251 248 243 235 229 225 218 212 212 211 206 206 206 203 201 201 201 202 203 205 207 209 211 213 215 216 219 221 221 227 237 242 245 248 247 247 248 247 246 246 244 242 242 242 241 242 242 240 238 237
353 354 355 359 4 7 9 10 10 7 3 1 359 352 339 321 306 296 290 276 264 260 260 257 252 246 242 242 243 241 240 240 241 243 245 243 238 234 233 229 221 214 211 208 203 203 204 201 199 198 196 196 199 200 199 201 204 207 210 211 212 215 219 224 231 238 248 255 258 256 254 253 249 247 247 247 245 243 243 242 243 242 242 242 240
357 358 358 0 4 8 11 12 13 14 11 8 3 359 352 341 329 320 303 286 274 267 265 266 259 250 244 240 239 239 241 242 242 241 237 233 231 229 230 229 224 219 216 211 207 207 205 202 201 200 197 197 200 201 201 205 209 211 214 217 220 221 222 226 236 245 252 261 268 269 266 261 252 245 241 242 243 244 243 244 245 244 243 244 243
0 2 4 5 7 9 11 13 14 15 14 12 8 4 0 354 347 343 318 283 271 258 255 260 257 252 248 239 235 239 241 237 233 229 225 225 228 230 230 230 227 223 221 218 215 214 212 211 212 210 207 208 208 208 210 213 215 219 224 228 231 235 234 232 236 243 250 259 266 268 267 264 257 249 238 230 235 240 241 242 244 244 244 245 245
2 5 9 11 12 12 13 13 13 13 14 15 14 11 8 4 358 354 344 312 259 236 237 245 248 249 248 241 236 237 227 212 210 223 230 231 234 233 232 232 230 228 226 224 222 220 220 220 221 219 219 220 218 217 219 221 222 227 231 231 233 237 238 236 237 239 243 250 256 257 258 258 253 254 254 245 240 243 241 242 244 246 246 248 248
4 6 9 11 13 14 14 13 13 13 13 15 16 14 11 10 8 3 358 345 257 220 224 234 238 241 243 238 233 229 219 215 225 239 241 238 240 239 237 235 234 232 232 231 230 228 226 225 226 226 227 227 227 226 228 228 229 230 231 232 234 235 235 237 239 237 237 241 244 245 249 251 250 253 256 252 253 257 259 261 264 257 252 256 256
6 6 7 8 10 12 12 12 13 14 14 14 13 11 10 8 5 2 357 349 300 220 222 235 240 242 242 239 236 234 232 235 243 244 240 240 242 241 240 239 236 234 234 234 234 234 233 231 231 230 229 229 230 230 230 232 233 233 232 232 232 232 233 235 237 236 236 237 237 239 244 249 250 252 253 252 255 264 267 269 278 279 274 275 274
9 8 6 6 7 8 10 11 12 12 13 13 11 9 8 4 1 360 357 350 332 257 235 244 246 243 242 242 241 241 241 244 247 247 246 246 245 243 243 243 240 238 237 236 235 236 236 235 235 234 232 232 232 231 232 233 234 234 235 234 233 233 233 233 232 234 235 235 235 237 241 245 248 251 252 252 255 259 263 270 281 288 293 301 305
12 11 10 8 7 6 7 8 9 9 9 9 8 6 4 0 358 357 354 348 340 311 274 259 249 244 243 240 241 245 247 249 252 254 254 253 253 252 251 249 247 245 244 242 240 240 239 238 239 238 237 237 236 235 235 236 237 237 238 237 235 235 235 234 234 235 235 235 236 237 239 241 245 248 250 251 253 253 255 261 268 276 288 300 308
12 13 13 12 11 10 8 7 7 6 5 3 2 0 358 355 352 348 344 339 329 306 282 261 246 244 242 239 240 246 249 251 253 255 255 255 257 257 256 255 253 252 250 249 249 248 246 246 245 245 244 244 244 242 241 241 241 242 241 239 239 240 239 238 237 237 237 238 238 237 238 240 242 244 247 250 251 253 254 256 258 263 271 282 294
10 11 13 13 13 13 11 10 8 8 6 5 3 0 356 352 348 342 336 329 319 305 290 272 257 250 246 244 245 248 251 254 257 258 257 258 259 258 257 257 256 254 252 251 250 250 250 249 249 248 248 249 247 247 247 246 245 245 245 244 243 243 243 243 243 242 240 241 241 240 241 241 241 243 246 247 249 253 256 256 257 260 263 268 279
10 11 11 11 12 12 11 11 10 10 8 7 6 4 1 357 352 346 340 332 325 316 305 294 282 271 261 254 251 249 249 253 256 258 259 259 258 256 256 256 254 253 253 251 249 249 249 248 248 249 249 249 249 250 250 250 249 249 250 249 248 246 246 246 247 247 246 245 244 244 244 245 245 246 247 247 248 251 254 255 258 261 261 261 265